TimeEDT,TemperatureF,Dew PointF,Humidity,Sea Level PressureIn,VisibilityMPH,Wind Direction,Wind SpeedMPH,Gust SpeedMPH,PrecipitationIn,Events,Conditions,WindDirDegrees,DateUTC
12:15 AM,62.6,44.6,52,29.93,10.0,SW,6.9,-,N/A,,Clear,230,2013-03-17 04:15:00
12:35 AM,62.6,44.6,52,29.93,10.0,SW,6.9,-,N/A,,Clear,230,2013-03-17 04:35:00
12:55 AM,62.6,44.6,52,29.93,10.0,SW,9.2,-,N/A,,Clear,230,2013-03-17 04:55:00
1:15 AM,62.6,42.8,48,29.93,10.0,SW,6.9,-,N/A,,Clear,220,2013-03-17 05:15:00
1:35 AM,62.6,42.8,48,29.93,10.0,SW,6.9,-,N/A,,Clear,230,2013-03-17 05:35:00
1:55 AM,62.6,42.8,48,29.93,10.0,WSW,8.1,-,N/A,,Clear,240,2013-03-17 05:55:00
2:15 AM,62.6,42.8,48,29.93,10.0,SW,8.1,-,N/A,,Clear,230,2013-03-17 06:15:00
2:35 AM,62.6,42.8,48,29.94,10.0,SW,8.1,-,N/A,,Clear,230,2013-03-17 06:35:00
2:55 AM,62.6,42.8,48,29.94,10.0,WSW,10.4,-,N/A,,Clear,240,2013-03-17 06:55:00
3:15 AM,62.6,42.8,48,29.94,10.0,WSW,10.4,16.1,N/A,,Clear,240,2013-03-17 07:15:00
3:35 AM,62.6,42.8,48,29.94,10.0,WSW,8.1,-,N/A,,Clear,250,2013-03-17 07:35:00
3:55 AM,62.6,42.8,48,29.94,10.0,WSW,9.2,-,N/A,,Clear,250,2013-03-17 07:55:00
4:15 AM,60.8,42.8,52,29.93,10.0,WSW,6.9,-,N/A,,Clear,250,2013-03-17 08:15:00
4:35 AM,60.8,44.6,55,29.93,10.0,SW,8.1,-,N/A,,Clear,230,2013-03-17 08:35:00
4:55 AM,60.8,44.6,55,29.94,10.0,WSW,8.1,-,N/A,,Clear,240,2013-03-17 08:55:00
5:15 AM,59.0,44.6,59,29.94,10.0,WSW,6.9,-,N/A,,Clear,240,2013-03-17 09:15:00
5:35 AM,57.2,44.6,63,29.94,10.0,WSW,6.9,-,N/A,,Clear,250,2013-03-17 09:35:00
5:50 AM,59.0,44.6,59,29.94,10.0,WSW,9.2,-,N/A,,Clear,240,2013-03-17 09:50:00
5:55 AM,59.0,44.6,59,29.95,10.0,WSW,6.9,-,N/A,,Clear,240,2013-03-17 09:55:00
6:47 AM,57.2,44.6,63,29.96,10.0,SSW,9.2,-,N/A,,Clear,200,2013-03-17 10:47:00
7:47 AM,57.2,44.6,63,29.97,10.0,WSW,9.2,-,N/A,,Clear,240,2013-03-17 11:47:00
8:45 AM,60.8,46.4,59,29.98,10.0,WSW,13.8,-,N/A,,Clear,240,2013-03-17 12:45:00
9:45 AM,66.2,48.2,52,29.99,10.0,WSW,12.7,-,N/A,,Clear,240,2013-03-17 13:45:00
10:45 AM,69.8,48.2,46,30.00,10.0,West,17.3,-,N/A,,Clear,260,2013-03-17 14:45:00
11:45 AM,73.4,51.8,47,30.00,10.0,West,10.4,20.7,N/A,,Clear,260,2013-03-17 15:45:00
12:45 PM,77.0,51.8,41,29.98,10.0,WSW,11.5,-,N/A,,Clear,250,2013-03-17 16:45:00
1:50 PM,78.8,50.0,36,29.96,10.0,SSW,13.8,-,N/A,,Clear,210,2013-03-17 17:50:00
2:45 PM,69.8,53.6,56,29.94,10.0,South,17.3,-,N/A,,Partly Cloudy,190,2013-03-17 18:45:00
3:45 PM,68.0,53.6,60,29.93,10.0,SSW,20.7,-,N/A,,Partly Cloudy,210,2013-03-17 19:45:00
4:45 PM,66.2,53.6,64,29.93,10.0,SSW,20.7,-,N/A,,Partly Cloudy,210,2013-03-17 20:45:00
5:45 PM,64.4,53.6,68,29.94,10.0,SSW,16.1,-,N/A,,Partly Cloudy,200,2013-03-17 21:45:00
6:50 PM,64.4,53.6,68,29.95,10.0,SSW,11.5,-,N/A,,Scattered Clouds,200,2013-03-17 22:50:00
7:45 PM,64.4,53.6,68,29.97,10.0,South,11.5,-,N/A,,Scattered Clouds,190,2013-03-17 23:45:00
8:45 PM,64.4,48.2,56,29.99,10.0,SW,13.8,-,N/A,,Clear,230,2013-03-18 00:45:00
9:50 PM,64.4,48.2,56,30.02,10.0,WSW,12.7,-,N/A,,Clear,240,2013-03-18 01:50:00
10:55 PM,62.6,46.4,55,30.05,10.0,SW,4.6,-,N/A,,Clear,220,2013-03-18 02:55:00
11:15 PM,62.6,46.4,55,30.05,10.0,WNW,4.6,-,N/A,,Clear,290,2013-03-18 03:15:00
11:35 PM,59.0,46.4,63,30.06,10.0,WSW,4.6,-,N/A,,Clear,250,2013-03-18 03:35:00
11:55 PM,60.8,46.4,59,30.05,10.0,South,3.5,-,N/A,,Clear,180,2013-03-18 03:55:00